Location: Rosenheim
(47.8408°N, 12.2113°E)
Time: 03:12:11
(UTC+01:00)

ISS - Pass Details

Date: 12 January 2018
Orbit: 402 x 407 km, 51.6° (Epoch: 18 January)

Event Time Altitude Azimuth Distance (km) Brightness Sun altitude
Exits shadow 04:51:15 13° 86° (E) 1,298 -0.4 -30.5°
Drops below altitude 10° 04:51:41 10° 88° (E) 1,466 -0.1 -30.4°
Sets 04:53:48 0° 94° (E) 2,326 1.2 -30.1°
